sat.trackr.live / text

‹ back to catalog

YAOGAN-43 03C

NORAD 61619 · 2024-190C

PAYLOAD ACTIVE UNKNOWN

§ Identity

Operator
Country
PRC
Launch date
2024-10-23
Launch site
XICLF
Launch vehicle
Mass (kg)
RCS (m²)

External: N2YO · Heavens-Above · Gunter

§ Orbital elements

Epoch: 2026-09-22T12:43:01.455744Z

Period
94.55 min
Inclination
34.9963°
Eccentricity
0.0005735
Mean motion
15.23042607 rev/d
Perigee alt
492.7 km
Apogee alt
500.6 km
Semi-major
6,874.8 km
B*
5.8748e-5
RAAN
305.8613°
Arg perigee
148.9944°
Mean anomaly
211.1110°
Rev number
10,667

§ Raw data

YAOGAN-43 03C1 61619U 24190C   26265.52987796  .00001381  00000+0  58748-4 0  99912 61619  34.9963 305.8613 0005735 148.9944 211.1110 15.23042607106671

JSON: /api/v1/satellites/61619 · /tle

For live sub-satellite position, see the globe view (requires WebGL).

§ Visibility from observer

Set your observer location to see the next 7 days of passes ≥ 10°. The values pass through the URL so the page stays shareable.

No JS? Fill the form by hand. The geolocation button needs JavaScript.